Location: Unspecified
(33.2961°N, 0.0000°E)
Time: 20:38:11
(UTC+00:00)

NOAA 17 DEB - Visible Passes

Search period start: 04 April 2026 00:00
Search period end: 14 April 2026 00:00
Orbit: 773 x 787 km, 98.8° (Epoch: 28 March)

Date Brightness Start Highest point End Pass type
(mag) Time Alt. Az. Time Alt. Az. Time Alt. Az.
4 Apr ? 03:36:20 10° NNE 03:41:29 79° ESE 03:42:41 53° S visible
4 Apr ? 05:19:12 10° NW 05:19:59 10° WNW 05:20:47 10° WNW visible
5 Apr ? 03:04:15 10° NNE 03:08:56 35° E 03:09:57 32° ESE visible
5 Apr ? 04:44:01 10° NNW 04:47:54 22° WNW 04:50:28 16° WSW visible
6 Apr ? 02:33:07 10° NE 02:36:15 16° E 02:37:12 16° ESE visible
6 Apr ? 04:10:47 10° N 04:15:40 46° WNW 04:17:43 30° SW visible
7 Apr ? 03:38:08 10° NNE 03:43:16 81° ESE 03:44:58 43° S visible
8 Apr ? 03:06:01 10° NNE 03:10:44 36° E 03:12:12 30° SE visible
8 Apr ? 04:45:52 10° NNW 04:49:41 22° WNW 04:52:43 13° WSW visible
9 Apr ? 02:34:48 10° NE 02:38:03 17° E 02:39:26 15° ESE visible
9 Apr ? 04:12:35 10° N 04:17:26 45° WNW 04:19:57 25° SW visible
10 Apr ? 03:39:54 10° NNE 03:45:02 84° ESE 03:47:11 36° S visible
11 Apr ? 03:07:44 10° NNE 03:12:29 38° E 03:14:25 28° SE visible
11 Apr ? 04:47:41 10° NNW 04:51:25 21° WNW 04:54:56 11° WSW visible
12 Apr ? 02:36:27 10° NE 02:39:48 17° E 02:41:38 15° ESE visible
12 Apr ? 04:14:20 10° N 04:19:10 43° WNW 04:22:09 21° SW visible
13 Apr ? 03:41:38 10° NNE 03:46:46 86° ESE 03:49:22 30° SSW visible
